Time,TemperatureF,DewpointF,PressureIn,WindDirection,WindDirectionDegrees,WindSpeedMPH,WindSpeedGustMPH,Humidity,HourlyPrecipIn,Conditions,Clouds,dailyrainin,SoftwareType,DateUTC
2013-05-16 00:09:00,55.3,44.0,29.69,SW,218,4.0,7.0,65,0.00,,,0.00,weatherlink.com 1.10,2013-05-16 04:09:00,
2013-05-16 00:25:00,54.8,43.0,29.68,SW,226,6.0,7.0,65,0.00,,,0.00,weatherlink.com 1.10,2013-05-16 04:25:00,
2013-05-16 00:40:00,55.4,43.0,29.68,SSW,205,6.0,7.0,64,0.00,,,0.00,weatherlink.com 1.10,2013-05-16 04:40:00,
2013-05-16 00:55:00,54.9,43.0,29.69,SSW,210,4.0,5.0,65,0.00,,,0.00,weatherlink.com 1.10,2013-05-16 04:55:00,
2013-05-16 01:10:00,54.6,43.0,29.69,SSW,205,1.0,4.0,65,0.00,,,0.00,weatherlink.com 1.10,2013-05-16 05:10:00,
2013-05-16 01:25:00,53.7,43.0,29.69,SW,229,3.0,5.0,68,0.00,,,0.00,weatherlink.com 1.10,2013-05-16 05:25:00,
2013-05-16 01:40:00,52.8,43.0,29.69,SW,224,5.0,6.0,70,0.00,,,0.00,weatherlink.com 1.10,2013-05-16 05:40:00,
2013-05-16 01:55:00,53.4,43.0,29.69,SW,224,4.0,6.0,69,0.00,,,0.00,weatherlink.com 1.10,2013-05-16 05:55:00,
2013-05-16 02:10:00,53.4,44.0,29.69,SW,230,4.0,7.0,70,0.00,,,0.00,weatherlink.com 1.10,2013-05-16 06:10:00,
2013-05-16 02:25:00,53.4,44.0,29.70,SW,231,2.0,4.0,70,0.00,,,0.00,weatherlink.com 1.10,2013-05-16 06:25:00,
2013-05-16 02:40:00,51.8,43.0,29.71,ENE,59,2.0,15.0,73,0.00,,,0.00,weatherlink.com 1.10,2013-05-16 06:40:00,
2013-05-16 02:55:00,47.0,41.0,29.72,NNE,16,4.0,8.0,79,0.00,,,0.00,weatherlink.com 1.10,2013-05-16 06:55:00,
2013-05-16 03:10:00,45.4,41.0,29.71,WNW,289,3.0,5.0,84,0.00,,,0.00,weatherlink.com 1.10,2013-05-16 07:10:00,
2013-05-16 03:25:00,46.5,42.0,29.72,West,259,7.0,9.0,84,0.00,,,0.00,weatherlink.com 1.10,2013-05-16 07:25:00,
2013-05-16 03:40:00,48.3,42.0,29.72,West,259,4.0,10.0,78,0.00,,,0.00,weatherlink.com 1.10,2013-05-16 07:40:00,
2013-05-16 03:55:00,48.1,42.0,29.73,West,281,4.0,7.0,78,0.00,,,0.00,weatherlink.com 1.10,2013-05-16 07:55:00,
2013-05-16 04:10:00,48.1,41.0,29.73,NW,323,5.0,8.0,77,0.00,,,0.00,weatherlink.com 1.10,2013-05-16 08:10:00,
2013-05-16 04:25:00,47.4,41.0,29.74,WNW,300,5.0,8.0,78,0.00,,,0.00,weatherlink.com 1.10,2013-05-16 08:25:00,
2013-05-16 04:40:00,46.6,40.0,29.74,WNW,302,5.0,6.0,79,0.00,,,0.00,weatherlink.com 1.10,2013-05-16 08:40:00,
2013-05-16 04:55:00,45.9,40.0,29.75,WNW,301,3.0,6.0,80,0.00,,,0.00,weatherlink.com 1.10,2013-05-16 08:55:00,
2013-05-16 05:10:00,45.2,40.0,29.76,WNW,299,4.0,4.0,81,0.00,,,0.00,weatherlink.com 1.10,2013-05-16 09:10:00,
2013-05-16 05:25:00,45.0,40.0,29.76,WNW,299,2.0,3.0,82,0.00,,,0.00,weatherlink.com 1.10,2013-05-16 09:25:00,
2013-05-16 05:40:00,44.7,40.0,29.77,WNW,299,2.0,3.0,82,0.00,,,0.00,weatherlink.com 1.10,2013-05-16 09:40:00,
2013-05-16 05:55:00,44.7,40.0,29.77,WNW,299,0.0,1.0,83,0.00,,,0.00,weatherlink.com 1.10,2013-05-16 09:55:00,
2013-05-16 06:10:00,44.6,40.0,29.78,WNW,299,1.0,2.0,83,0.00,,,0.00,weatherlink.com 1.10,2013-05-16 10:10:00,
2013-05-16 06:25:00,45.0,40.0,29.79,WNW,299,1.0,2.0,82,0.00,,,0.00,weatherlink.com 1.10,2013-05-16 10:25:00,
2013-05-16 06:40:00,45.2,40.0,29.81,WNW,299,0.0,3.0,81,0.00,,,0.00,weatherlink.com 1.10,2013-05-16 10:40:00,
2013-05-16 06:55:00,45.8,40.0,29.81,WNW,299,0.0,0.0,81,0.00,,,0.00,weatherlink.com 1.10,2013-05-16 10:55:00,
2013-05-16 07:10:00,49.0,41.0,29.82,WNW,299,0.0,1.0,73,0.00,,,0.00,weatherlink.com 1.10,2013-05-16 11:10:00,
2013-05-16 07:25:00,50.2,40.0,29.82,NW,326,3.0,4.0,68,0.00,,,0.00,weatherlink.com 1.10,2013-05-16 11:25:00,
2013-05-16 07:40:00,50.7,41.0,29.82,NNW,327,3.0,4.0,70,0.00,,,0.00,weatherlink.com 1.10,2013-05-16 11:40:00,
2013-05-16 07:55:00,51.5,40.0,29.83,NNE,26,5.0,8.0,65,0.00,,,0.00,weatherlink.com 1.10,2013-05-16 11:55:00,
2013-05-16 08:26:00,51.5,40.0,29.84,NNE,22,2.0,9.0,66,0.00,,,0.00,weatherlink.com 1.10,2013-05-16 12:26:00,
2013-05-16 09:11:00,51.5,39.0,29.86,North,355,6.0,10.0,63,0.00,,,0.00,weatherlink.com 1.10,2013-05-16 13:11:00,
2013-05-16 09:26:00,52.4,39.0,29.87,NNE,12,9.0,11.0,61,0.00,,,0.00,weatherlink.com 1.10,2013-05-16 13:26:00,
2013-05-16 09:57:00,52.4,39.0,29.88,North,360,7.0,12.0,61,0.00,,,0.00,weatherlink.com 1.10,2013-05-16 13:57:00,
2013-05-16 10:11:00,52.5,39.0,29.88,NE,41,8.0,14.0,61,0.00,,,0.00,weatherlink.com 1.10,2013-05-16 14:11:00,
2013-05-16 10:26:00,52.7,39.0,29.89,NNE,22,10.0,16.0,60,0.00,,,0.00,weatherlink.com 1.10,2013-05-16 14:26:00,
2013-05-16 10:41:00,52.1,39.0,29.89,North,11,10.0,13.0,62,0.00,,,0.00,weatherlink.com 1.10,2013-05-16 14:41:00,
2013-05-16 10:56:00,52.8,40.0,29.89,NNW,333,7.0,13.0,62,0.00,,,0.00,weatherlink.com 1.10,2013-05-16 14:56:00,
2013-05-16 11:11:00,52.6,40.0,29.90,NNW,329,9.0,13.0,62,0.00,,,0.00,weatherlink.com 1.10,2013-05-16 15:11:00,
2013-05-16 11:26:00,53.5,40.0,29.91,NW,323,9.0,13.0,60,0.00,,,0.00,weatherlink.com 1.10,2013-05-16 15:26:00,
2013-05-16 11:41:00,54.4,40.0,29.91,North,360,5.0,14.0,59,0.00,,,0.00,weatherlink.com 1.10,2013-05-16 15:41:00,
2013-05-16 11:56:00,54.4,39.0,29.91,NE,38,8.0,12.0,56,0.00,,,0.00,weatherlink.com 1.10,2013-05-16 15:56:00,
2013-05-16 12:11:00,54.0,39.0,29.91,North,355,7.0,12.0,57,0.00,,,0.00,weatherlink.com 1.10,2013-05-16 16:11:00,
2013-05-16 12:26:00,54.5,40.0,29.91,NNE,19,12.0,14.0,58,0.00,,,0.00,weatherlink.com 1.10,2013-05-16 16:26:00,
2013-05-16 12:41:00,54.2,39.0,29.91,North,360,8.0,14.0,57,0.00,,,0.00,weatherlink.com 1.10,2013-05-16 16:41:00,
2013-05-16 12:56:00,54.6,39.0,29.92,NNE,13,8.0,14.0,57,0.00,,,0.00,weatherlink.com 1.10,2013-05-16 16:56:00,
2013-05-16 13:11:00,53.8,39.0,29.93,NNW,333,8.0,12.0,57,0.00,,,0.00,weatherlink.com 1.10,2013-05-16 17:11:00,
2013-05-16 13:26:00,53.6,40.0,29.93,NNE,21,8.0,11.0,60,0.00,,,0.00,weatherlink.com 1.10,2013-05-16 17:26:00,
2013-05-16 13:41:00,53.7,39.0,29.93,NW,316,10.0,12.0,59,0.00,,,0.00,weatherlink.com 1.10,2013-05-16 17:41:00,
2013-05-16 13:56:00,53.7,39.0,29.93,NNW,329,7.0,11.0,59,0.00,,,0.00,weatherlink.com 1.10,2013-05-16 17:56:00,
2013-05-16 14:11:00,54.4,39.0,29.94,North,5,8.0,12.0,56,0.00,,,0.00,weatherlink.com 1.10,2013-05-16 18:11:00,
2013-05-16 14:26:00,55.6,42.0,29.94,North,360,9.0,10.0,60,0.00,,,0.00,weatherlink.com 1.10,2013-05-16 18:26:00,
2013-05-16 14:41:00,56.1,39.0,29.94,North,360,7.0,11.0,53,0.00,,,0.00,weatherlink.com 1.10,2013-05-16 18:41:00,
2013-05-16 14:56:00,55.4,40.0,29.94,NNW,332,8.0,12.0,56,0.00,,,0.00,weatherlink.com 1.10,2013-05-16 18:56:00,
2013-05-16 15:11:00,54.9,40.0,29.94,NW,311,8.0,11.0,57,0.00,,,0.00,weatherlink.com 1.10,2013-05-16 19:11:00,
2013-05-16 15:26:00,56.9,40.0,29.94,NNE,15,8.0,14.0,54,0.00,,,0.00,weatherlink.com 1.10,2013-05-16 19:26:00,
2013-05-16 15:41:00,56.2,39.0,29.94,NNW,340,8.0,14.0,53,0.00,,,0.00,weatherlink.com 1.10,2013-05-16 19:41:00,
2013-05-16 15:56:00,56.4,40.0,29.94,NNE,20,5.0,9.0,55,0.00,,,0.00,weatherlink.com 1.10,2013-05-16 19:56:00,
2013-05-16 16:11:00,55.3,40.0,29.94,NW,312,5.0,10.0,56,0.00,,,0.00,weatherlink.com 1.10,2013-05-16 20:11:00,
2013-05-16 16:26:00,55.7,40.0,29.94,NNW,343,8.0,9.0,56,0.00,,,0.00,weatherlink.com 1.10,2013-05-16 20:26:00,
2013-05-16 16:41:00,56.6,40.0,29.93,North,360,7.0,11.0,54,0.00,,,0.00,weatherlink.com 1.10,2013-05-16 20:41:00,
2013-05-16 16:56:00,56.3,41.0,29.94,NNW,336,9.0,10.0,56,0.00,,,0.00,weatherlink.com 1.10,2013-05-16 20:56:00,
2013-05-16 17:11:00,56.8,40.0,29.94,North,5,6.0,10.0,53,0.00,,,0.00,weatherlink.com 1.10,2013-05-16 21:11:00,
2013-05-16 17:26:00,56.8,40.0,29.94,NNW,341,5.0,9.0,53,0.00,,,0.00,weatherlink.com 1.10,2013-05-16 21:26:00,
2013-05-16 17:41:00,57.4,40.0,29.95,NNW,336,7.0,10.0,53,0.00,,,0.00,weatherlink.com 1.10,2013-05-16 21:41:00,
2013-05-16 17:56:00,56.9,40.0,29.95,NNW,337,7.0,11.0,54,0.00,,,0.00,weatherlink.com 1.10,2013-05-16 21:56:00,
2013-05-16 18:26:00,56.6,40.0,29.95,NNW,334,4.0,10.0,54,0.00,,,0.00,weatherlink.com 1.10,2013-05-16 22:26:00,
2013-05-16 18:41:00,56.6,40.0,29.95,NNW,348,5.0,7.0,54,0.00,,,0.00,weatherlink.com 1.10,2013-05-16 22:41:00,
2013-05-16 18:56:00,56.8,40.0,29.95,North,355,3.0,7.0,54,0.00,,,0.00,weatherlink.com 1.10,2013-05-16 22:56:00,
2013-05-16 19:12:00,56.8,40.0,29.96,NNW,344,5.0,10.0,54,0.00,,,0.00,weatherlink.com 1.10,2013-05-16 23:12:00,
2013-05-16 19:27:00,57.3,41.0,29.96,North,5,4.0,7.0,55,0.00,,,0.00,weatherlink.com 1.10,2013-05-16 23:27:00,
2013-05-16 19:42:00,57.0,40.0,29.96,NNE,22,3.0,8.0,53,0.00,,,0.00,weatherlink.com 1.10,2013-05-16 23:42:00,
2013-05-16 19:57:00,56.5,40.0,29.96,NNE,28,5.0,8.0,54,0.00,,,0.00,weatherlink.com 1.10,2013-05-16 23:57:00,
2013-05-16 20:12:00,55.8,40.0,29.97,NE,46,3.0,6.0,55,0.00,,,0.00,weatherlink.com 1.10,2013-05-17 00:12:00,
2013-05-16 20:27:00,54.8,40.0,29.97,NNE,24,4.0,6.0,58,0.00,,,0.00,weatherlink.com 1.10,2013-05-17 00:27:00,
2013-05-16 20:42:00,53.0,40.0,29.98,NNE,19,4.0,6.0,61,0.00,,,0.00,weatherlink.com 1.10,2013-05-17 00:42:00,
2013-05-16 20:57:00,51.9,40.0,29.99,North,355,3.0,5.0,63,0.00,,,0.00,weatherlink.com 1.10,2013-05-17 00:57:00,
2013-05-16 21:12:00,50.4,39.0,29.98,North,355,2.0,4.0,66,0.00,,,0.00,weatherlink.com 1.10,2013-05-17 01:12:00,
2013-05-16 21:27:00,51.0,40.0,29.99,North,355,2.0,5.0,65,0.00,,,0.00,weatherlink.com 1.10,2013-05-17 01:27:00,
2013-05-16 21:42:00,50.9,39.0,30.00,North,360,4.0,5.0,64,0.00,,,0.00,weatherlink.com 1.10,2013-05-17 01:42:00,
2013-05-16 21:57:00,50.6,39.0,30.01,North,360,4.0,5.0,65,0.00,,,0.00,weatherlink.com 1.10,2013-05-17 01:57:00,
2013-05-16 22:12:00,50.0,39.0,30.01,North,360,4.0,5.0,66,0.00,,,0.00,weatherlink.com 1.10,2013-05-17 02:12:00,
2013-05-16 22:27:00,49.5,39.0,30.02,North,360,2.0,4.0,68,0.00,,,0.00,weatherlink.com 1.10,2013-05-17 02:27:00,
2013-05-16 22:42:00,48.6,39.0,30.02,North,360,0.0,3.0,70,0.00,,,0.00,weatherlink.com 1.10,2013-05-17 02:42:00,
2013-05-16 22:57:00,47.8,40.0,30.02,North,360,3.0,4.0,74,0.00,,,0.00,weatherlink.com 1.10,2013-05-17 02:57:00,
2013-05-16 23:12:00,48.8,40.0,30.02,North,5,1.0,5.0,72,0.00,,,0.00,weatherlink.com 1.10,2013-05-17 03:12:00,
2013-05-16 23:27:00,46.7,40.0,30.03,North,5,0.0,1.0,76,0.00,,,0.00,weatherlink.com 1.10,2013-05-17 03:27:00,
2013-05-16 23:42:00,45.8,39.0,30.03,North,5,2.0,3.0,78,0.00,,,0.00,weatherlink.com 1.10,2013-05-17 03:42:00,
2013-05-16 23:57:00,45.8,40.0,30.03,North,5,1.0,2.0,80,0.00,,,0.00,weatherlink.com 1.10,2013-05-17 03:57:00,